When you browse on this site, cookies collect data to enhance your experience and personalize the content and advertising you see.
Visit our Privacy Policy to learn more. By continuing to use the site, you agree to this use of cookies and data.
  • în România
  • Lista ţărilor
  • Pe 7 zile
  • Temperatura apei
  • Meteo pe hartă
  • Widget-uri
  • user-avatar
    Intrare

    Meteo pe oră la Guanare

    Astăzi, 2 Iunie, Marţi

    Timp Temperatura Precipitaţii Vânt Presiune Umiditate
    00:00 +25°C° 0.4 mm 1 m/s 743 mmHg 91%
    01:00 +24°C° 0 mm 1 m/s 742 mmHg 94%
    02:00 +24°C° 0 mm 1 m/s 742 mmHg 93%
    03:00 +24°C° 0 mm 1 m/s 742 mmHg 91%
    04:00 +24°C° 0 mm 1 m/s 742 mmHg 90%
    05:00 +25°C° 0 mm 1 m/s 742 mmHg 87%
    06:00 +26°C° 0 mm 1 m/s 742 mmHg 84%
    07:00 +27°C° 0 mm 1 m/s 743 mmHg 81%
    08:00 +28°C° 0.6 mm 1 m/s 743 mmHg 78%
    09:00 +30°C° 0.6 mm 1 m/s 743 mmHg 75%
    10:00 +31°C° 0.6 mm 2 m/s 744 mmHg 72%
    11:00 +31°C° 1.1 mm 2 m/s 743 mmHg 72%
    12:00 +31°C° 1.1 mm 2 m/s 742 mmHg 72%
    13:00 +31°C° 1.1 mm 2 m/s 741 mmHg 73%
    14:00 +31°C° 0.6 mm 1 m/s 741 mmHg 74%
    15:00 +31°C° 0.6 mm 1 m/s 740 mmHg 75%
    16:00 +31°C° 0.6 mm 1 m/s 740 mmHg 76%
    17:00 +27°C° 0.2 mm 0 m/s 740 mmHg 81%
    18:00 +26°C° 0.2 mm 0 m/s 741 mmHg 86%
    19:00 +24°C° 0.2 mm 0 m/s 741 mmHg 91%
    20:00 +24°C° 0 mm 0 m/s 741 mmHg 92%
    21:00 +24°C° 0 mm 0 m/s 742 mmHg 93%
    22:00 +23°C° 0 mm 0 m/s 742 mmHg 94%
    23:00 +25°C° 0.1 mm 1 m/s 742 mmHg 94%

    Mâine, 3 Iunie, Miercuri

    Timp Temperatura Precipitaţii Vânt Presiune Umiditate
    00:00 +25°C° 0.1 mm 1 m/s 742 mmHg 94%
    01:00 +25°C° 0.1 mm 1 m/s 742 mmHg 93%
    02:00 +25°C° 0 mm 1 m/s 742 mmHg 94%
    03:00 +24°C° 0 mm 1 m/s 741 mmHg 94%
    04:00 +24°C° 0 mm 1 m/s 741 mmHg 94%
    05:00 +25°C° 0 mm 1 m/s 742 mmHg 92%
    06:00 +26°C° 0 mm 1 m/s 742 mmHg 90%
    07:00 +27°C° 0 mm 1 m/s 743 mmHg 88%
    08:00 +28°C° 0.1 mm 1 m/s 743 mmHg 80%
    09:00 +30°C° 0.1 mm 2 m/s 743 mmHg 71%
    10:00 +31°C° 0.1 mm 2 m/s 743 mmHg 62%
    11:00 +32°C° 0.1 mm 2 m/s 743 mmHg 61%
    12:00 +32°C° 0.1 mm 2 m/s 742 mmHg 59%
    13:00 +34°C° 0.1 mm 2 m/s 741 mmHg 57%
    14:00 +33°C° 0 mm 1 m/s 741 mmHg 60%
    15:00 +32°C° 0 mm 1 m/s 740 mmHg 62%
    16:00 +32°C° 0 mm 1 m/s 739 mmHg 65%
    17:00 +30°C° 0 mm 1 m/s 740 mmHg 72%
    18:00 +26°C° 0 mm 0 m/s 740 mmHg 79%
    19:00 +25°C° 0 mm 0 m/s 741 mmHg 85%
    20:00 +24°C° 0 mm 0 m/s 741 mmHg 86%
    21:00 +26°C° 0 mm 1 m/s 741 mmHg 87%
    22:00 +26°C° 0 mm 1 m/s 742 mmHg 88%
    23:00 +25°C° 0 mm 1 m/s 741 mmHg 87%

    Poimâine, 4 Iunie, Joi

    Timp Temperatura Precipitaţii Vânt Presiune Umiditate
    00:00 +25°C° 0 mm 1 m/s 741 mmHg 85%
    01:00 +25°C° 0 mm 1 m/s 741 mmHg 84%
    02:00 +25°C° 0.1 mm 1 m/s 741 mmHg 84%
    03:00 +25°C° 0.1 mm 1 m/s 741 mmHg 84%
    04:00 +25°C° 0.1 mm 1 m/s 741 mmHg 83%
    05:00 +26°C° 0.1 mm 1 m/s 742 mmHg 83%
    06:00 +26°C° 0.1 mm 1 m/s 742 mmHg 82%
    07:00 +25°C° 0.1 mm 0 m/s 743 mmHg 81%
    08:00 +28°C° 0.5 mm 1 m/s 743 mmHg 79%
    09:00 +29°C° 0.5 mm 1 m/s 743 mmHg 77%
    10:00 +30°C° 0.5 mm 2 m/s 744 mmHg 74%
    11:00 +31°C° 0.2 mm 1 m/s 743 mmHg 69%
    12:00 +32°C° 0.2 mm 1 m/s 742 mmHg 64%
    13:00 +33°C° 0.2 mm 1 m/s 741 mmHg 58%
    14:00 +33°C° 0 mm 1 m/s 741 mmHg 61%
    15:00 +33°C° 0 mm 1 m/s 740 mmHg 63%
    16:00 +32°C° 0 mm 1 m/s 740 mmHg 65%
    17:00 +31°C° 0 mm 1 m/s 740 mmHg 71%
    18:00 +29°C° 0 mm 1 m/s 741 mmHg 78%
    19:00 +25°C° 0 mm 0 m/s 741 mmHg 85%
    20:00 +25°C° 0 mm 0 m/s 742 mmHg 85%
    21:00 +26°C° 0 mm 1 m/s 742 mmHg 86%
    22:00 +26°C° 0 mm 1 m/s 743 mmHg 87%
    23:00 +26°C° 0 mm 1 m/s 742 mmHg 86%

    5 Iunie, Vineri

    Timp Temperatura Precipitaţii Vânt Presiune Umiditate
    00:00 +25°C° 0 mm 1 m/s 742 mmHg 86%
    01:00 +25°C° 0 mm 1 m/s 741 mmHg 86%
    02:00 +25°C° 0 mm 1 m/s 742 mmHg 83%
    03:00 +25°C° 0 mm 1 m/s 742 mmHg 81%
    04:00 +25°C° 0 mm 1 m/s 742 mmHg 79%
    05:00 +25°C° 0 mm 1 m/s 742 mmHg 77%
    06:00 +26°C° 0 mm 1 m/s 743 mmHg 75%
    07:00 +27°C° 0 mm 1 m/s 744 mmHg 73%
    08:00 +29°C° 0 mm 1 m/s 744 mmHg 68%
    09:00 +30°C° 0 mm 1 m/s 744 mmHg 63%
    10:00 +32°C° 0 mm 2 m/s 744 mmHg 58%
    11:00 +33°C° 0 mm 1 m/s 743 mmHg 56%
    12:00 +34°C° 0 mm 1 m/s 742 mmHg 54%
    13:00 +34°C° 0 mm 1 m/s 742 mmHg 53%
    14:00 +34°C° 0 mm 1 m/s 741 mmHg 55%
    15:00 +33°C° 0 mm 1 m/s 741 mmHg 58%
    16:00 +33°C° 0 mm 1 m/s 740 mmHg 60%
    17:00 +31°C° 0 mm 1 m/s 741 mmHg 66%
    18:00 +27°C° 0 mm 0 m/s 741 mmHg 72%
    19:00 +26°C° 0 mm 0 m/s 742 mmHg 78%
    20:00 +25°C° 0.5 mm 0 m/s 742 mmHg 82%
    21:00 +26°C° 0.5 mm 1 m/s 742 mmHg 87%
    22:00 +25°C° 0.5 mm 1 m/s 743 mmHg 91%
    23:00 +25°C° 0 mm 1 m/s 742 mmHg 90%

    6 Iunie, Sâmbătă

    Timp Temperatura Precipitaţii Vânt Presiune Umiditate
    00:00 +25°C° 0 mm 1 m/s 742 mmHg 90%
    01:00 +25°C° 0 mm 1 m/s 742 mmHg 90%
    02:00 +25°C° 0.1 mm 1 m/s 742 mmHg 89%
    03:00 +24°C° 0.1 mm 1 m/s 742 mmHg 89%
    04:00 +24°C° 0.1 mm 1 m/s 742 mmHg 88%
    05:00 +25°C° 0.6 mm 1 m/s 743 mmHg 89%
    06:00 +25°C° 0.6 mm 1 m/s 743 mmHg 90%
    07:00 +26°C° 0.6 mm 1 m/s 743 mmHg 91%
    08:00 +27°C° 1.3 mm 1 m/s 743 mmHg 88%
    09:00 +29°C° 1.3 mm 1 m/s 743 mmHg 85%
    10:00 +30°C° 1.3 mm 1 m/s 743 mmHg 82%
    11:00 +31°C° 1.6 mm 1 m/s 743 mmHg 77%
    12:00 +32°C° 1.6 mm 1 m/s 742 mmHg 73%
    13:00 +33°C° 1.6 mm 1 m/s 742 mmHg 68%
    14:00 +31°C° 2.4 mm 1 m/s 741 mmHg 77%
    15:00 +28°C° 2.4 mm 1 m/s 741 mmHg 87%
    16:00 +26°C° 2.4 mm 1 m/s 741 mmHg 96%
    17:00 +26°C° 0.2 mm 1 m/s 741 mmHg 97%
    18:00 +26°C° 0.2 mm 1 m/s 742 mmHg 97%
    19:00 +25°C° 0.2 mm 1 m/s 742 mmHg 97%
    20:00 +25°C° 0 mm 1 m/s 742 mmHg 97%
    21:00 +25°C° 0 mm 1 m/s 743 mmHg 96%
    22:00 +25°C° 0 mm 1 m/s 743 mmHg 96%
    23:00 +25°C° 0 mm 1 m/s 743 mmHg 96%

    7 Iunie, Duminică

    Timp Temperatura Precipitaţii Vânt Presiune Umiditate
    00:00 +24°C° 0 mm 1 m/s 742 mmHg 96%
    01:00 +24°C° 0 mm 1 m/s 742 mmHg 96%
    02:00 +24°C° 0 mm 1 m/s 742 mmHg 96%
    03:00 +24°C° 0 mm 1 m/s 742 mmHg 96%
    04:00 +24°C° 0 mm 1 m/s 742 mmHg 96%
    05:00 +23°C° 0 mm 0 m/s 743 mmHg 93%
    06:00 +23°C° 0 mm 0 m/s 743 mmHg 91%
    07:00 +24°C° 0 mm 0 m/s 744 mmHg 89%
    08:00 +26°C° 0.5 mm 0 m/s 744 mmHg 83%
    09:00 +28°C° 0.5 mm 0 m/s 744 mmHg 78%
    10:00 +31°C° 0.5 mm 1 m/s 744 mmHg 73%
    11:00 +32°C° 0.3 mm 1 m/s 743 mmHg 69%
    12:00 +32°C° 0.3 mm 1 m/s 742 mmHg 65%
    13:00 +33°C° 0.3 mm 1 m/s 742 mmHg 61%
    14:00 +32°C° 0.6 mm 1 m/s 741 mmHg 67%
    15:00 +31°C° 0.6 mm 1 m/s 741 mmHg 72%
    16:00 +30°C° 0.6 mm 1 m/s 740 mmHg 78%
    17:00 +29°C° 0.7 mm 1 m/s 741 mmHg 83%
    18:00 +26°C° 0.7 mm 0 m/s 741 mmHg 87%
    19:00 +24°C° 0.7 mm 0 m/s 742 mmHg 92%
    20:00 +24°C° 0.3 mm 0 m/s 742 mmHg 92%
    21:00 +24°C° 0.3 mm 0 m/s 743 mmHg 92%
    22:00 +24°C° 0.3 mm 0 m/s 743 mmHg 92%
    23:00 +25°C° 0.1 mm 1 m/s 743 mmHg 92%
    Arată mai mult